FO-29
1 24278U 96046B 11041.89396483 -.00000003 00000-0 34170-4 0 5051
2 24278 098.5252 203.1610 0349889 224.5649 132.6866 13.52957057715382
SO-33
1 25509U 98061B 11041.87248809 -.00000061 00000-0 -26802-4 0 9012
2 25509 031.4327 238.7157 0354250 217.0024 140.5640 14.28363311642207
RS-22
1 27939U 03042A 11041.67386513 .00000119 00000-0 31646-4 0 9787
2 27939 097.8609 261.6003 0014246 029.5036 330.6958 14.63508440393836
VO-52
1 28650U 05017B 11041.63364255 .00000494 00000-0 68505-4 0 7156
2 28650 097.6600 090.3323 0026228 214.4103 145.5459 14.81906357312009
SO-67
1 35870U 09049F 11041.78556800 .00001017 00000-0 48418-4 0 5490
2 35870 097.2996 089.1860 0003174 012.2581 121.5896 15.21330905 77727
HO-68
1 36122U 09072B 11041.83749678 -.00000045 00000-0 00000 0 0 1004
2 36122 100.4342 104.4832 0007811 149.4778 210.6791 13.16283933 55611
UO-11
1 14781U 84021B 11041.70536461 -.00000237 00000-0 -24330-4 0 4664
2 14781 098.0215 098.7126 0008873 181.7058 178.4120 14.79885824447089
AO-16
1 20439U 90005D 11040.42660846 .00000019 00000-0 22687-4 0 01164
2 20439 098.3673 354.4248 0010641 178.3297 181.7922 14.31894287099336
LO-19
1 20442U 90005G 11040.87556435 .00000022 00000-0 23806-4 0 00252
2 20442 098.3308 359.7064 0011855 170.5282 189.6130 14.32122177099572
AO-27
1 22825U 93061C 11041.86594185 .00000041 00000-0 32878-4 0 7457
2 22825 098.5173 349.0181 0007689 290.6285 069.4089 14.29325937906143
IO-26
1 22826U 93061D 11040.90855152 .00000010 00000-0 20572-4 0 4839
2 22826 098.5113 348.5989 0008236 288.1551 071.8732 14.29585017906122
GO-32
1 25397U 98043D 11040.52090924 .00000111 00000-0 67288-4 0 04046
2 25397 098.3202 039.9556 0000632 338.0121 022.1022 14.23196442653805
NO-44
1 26931U 01043C 11041.76670533 -.00000145 00000-0 -24123-4 0 6763
2 26931 067.0531 309.2717 0006984 271.8481 088.1838 14.29631691488853
SO-50
1 27607U 02058C 11041.33452382 .00000168 00000-0 48123-4 0 3872
2 27607 064.5593 353.1036 0058276 351.0469 008.9591 14.71640941437422
CO-55
1 27844U 03031E 11040.57039350 .00000051 00000-0 43981-4 0 00424
2 27844 098.7078 051.1190 0009322 203.4202 156.6554 14.20766597394793
CO-57
1 27848U 03031J 11041.55076970 .00000048 00000-0 42730-4 0 9893
2 27848 098.7142 051.2335 0009263 205.5872 154.4863 14.20552432394881
AO-51
1 28375U 04025K 11040.53284312 .00000025 00000-0 19990-4 0 08921
2 28375 098.0831 025.7870 0084754 096.7035 264.3813 14.40722787347680
CP3
1 31129U 07012N 11040.63225033 -.00000066 00000-0 -46007-5 0 07945
2 31129 097.9121 072.1473 0101282 216.7046 142.7180 14.52371508202329
CO-65
1 32785U 08021C 11040.66559756 -.00000002 00000-0 64305-5 0 09111
2 32785 097.8643 106.9183 0013965 229.7677 130.2324 14.81820304150659
KKS-1
1 33493U 09002B 11041.72706401 .00000739 00000-0 10138-3 0 2973
2 33493 098.1071 168.6703 0021118 090.5029 269.8611 14.81315254110794
SOHLA-1
1 33496U 09002E 11041.81673030 .00000049 00000-0 16471-4 0 3306
2 33496 098.0681 153.0221 0006847 156.6864 203.4674 14.69554226109925
TISAT-1
1 36799U 10035E 11041.88193950 .00000434 00000-0 64061-4 0 5711
2 36799 098.1175 108.8201 0014784 329.1496 030.8835 14.80310355 31624
STUDSAT
1 36801U 10035G 11040.79871606 .00001143 00000-0 15824-3 0 01395
2 36801 098.1231 107.5816 0013559 320.9356 039.0874 14.79990816031451
RAX
1 37223U 0 11039.48940803 .00000316 00000-0 52368-4 0 00761
2 37223 071.9753 322.7653 0020797 171.1922 188.9635 14.77230853011885
OOREOS
1 37224U 10062C 11031.44731873 .00000123 00000-0 25362-4 0 00719
2 37224 071.9747 340.6006 0020047 184.3247 175.7744 14.76886093010688
NANOSALD
1 37225U 0 11039.51529623 .00033056 00000-0 45552-2 0 00278
2 37225 071.9716 322.8473 0017765 140.4752 219.7749 14.77960777002983
FAST1-2
1 37227U 0 11041.43153630 .00000144 00000-0 28598-4 0 00753
2 37227 071.9753 318.7141 0016999 162.2837 197.8952 14.76390201012156
NOAA-10
1 16969U 86073A 11040.70761785 -.00000073 00000-0 -12039-4 0 03920
2 16969 098.6333 072.1450 0011541 236.4206 123.5873 14.27442747269467
NOAA-11
1 19531U 88089A 11040.84196459 -.00000078 00000-0 -17746-4 0 03972
2 19531 098.7560 130.7060 0011009 187.9345 172.1640 14.14903064154745
NOAA-12
1 21263U 91032A 11040.84905362 .00000138 00000-0 76970-4 0 08918
2 21263 098.7566 058.8785 0012254 193.0718 167.0142 14.25682793026265
MET-3/5
1 21655U 91056A 11041.57024147 .00000051 00000-0 10000-3 0 347
2 21655 082.5598 140.2341 0014702 112.3464 247.9188 13.17024042937055
MET-2/21
1 22782U 93055A 11040.84098171 .00000014 00000-0 -11493-5 0 00155
2 22782 082.5447 063.9161 0024046 095.4411 264.9495 13.83652155880946
OKEAN-4
1 23317U 94066A 11041.72181120 .00000174 00000-0 18418-4 0 4702
2 23317 082.5423 131.2186 0022242 171.6576 188.5025 14.82936063881805
NOAA-14
1 23455U 94089A 11040.93246973 -.00000026 00000-0 97940-5 0 03771
2 23455 098.8584 124.8064 0008645 283.0861 076.9332 14.13805289831091
NOAA-15
1 25338U 98030A 11040.71564463 .00000099 00000-0 60857-4 0 07045
2 25338 098.6446 028.6812 0011581 102.2799 257.9675 14.24882318662571
RESURS
1 25394U 98043A 11041.65086625 -.00000023 00000-0 74916-5 0 7213
2 25394 098.2991 051.6454 0000466 244.5472 115.5657 14.24222741654297
FENGYUN1
1 25730U 99025A 11040.95038729 .00000091 00000-0 78240-4 0 02573
2 25730 098.8063 005.0079 0022454 311.0782 048.8516 14.08490909605156
OKEAN-0
1 25860U 99039A 11040.51881054 .00000091 00000-0 21285-4 0 02275
2 25860 097.8668 010.6051 0001840 058.9783 301.1601 14.73707616621859
NOAA-16
1 26536U 00055A 11040.79528793 -.00000262 00000-0 -11651-3 0 01843
2 26536 099.1536 068.6720 0010914 034.5327 325.6544 14.12594672535378
NOAA-17
1 27453U 02032A 11040.73894807 .00000063 00000-0 45055-4 0 01804
2 27453 098.3975 086.1986 0012071 158.3445 201.8251 14.24234491448518
NOAA-18
1 28654U 05018A 11040.78530866 .00000116 00000-0 88898-4 0 06662
2 28654 098.9816 351.7237 0015143 102.7817 257.5045 14.11433689294953
NOAA-19
1 33591U 09005A 11040.75437210 .00000311 00000-0 19651-3 0 08584
2 33591 098.8155 343.1309 0013898 340.4385 019.6265 14.11128524103415
HUBBLE
1 20580U 90037B 11041.60843290 .00000640 00000-0 35982-4 0 7127
2 20580 028.4694 123.1746 0003504 211.1712 148.8749 15.01157440940610
ISS
1 25544U 98067A 11042.01601058 .00003529 00000-0 30642-4 0 8008
2 25544 051.6449 087.8999 0004517 299.5128 132.8333 15.72288264701044
CO-58
1 28895U 05043F 11040.66570968 .00000218 00000-0 54717-4 0 07972
2 28895 097.9860 281.8492 0016696 260.0426 099.8900 14.60004879281639
FALCON
1 30776U 07006E 11040.35488663 .00001006 00000-0 74127-4 0 189
2 30776 035.4336 043.9381 0000635 022.3295 337.7517 15.04102506215784
MAST
1 31126U 07012K 11041.66331871 .00000143 00000-0 42672-4 0 810
2 31126 097.9087 075.9612 0094272 203.9249 155.7548 14.53671523202701
CAPE1
1 31130U 07012P 11040.63469993 .00000100 00000-0 33602-4 0 1006
2 31130 097.9125 071.9553 0102038 216.9233 142.4906 14.52287734202129
COMPASS
1 32787U 08021E 11041.63999120 .00000471 00000-0 65678-4 0 9060
2 32787 097.8634 107.7488 0014943 226.5742 133.4173 14.82134656150817
AAUSAT2
1 32788U 08021F 11040.67359542 .00000596 00000-0 81139-4 0 08946
2 32788 097.8644 106.9844 0014380 231.4022 128.5941 14.82295508150684
DO-64
1 32789U 08021G 11040.71591148 .00000539 00000-0 73514-4 0 09128
2 32789 097.8725 107.8114 0014650 228.9534 131.0390 14.82582343150698
